Location: Waco, TX
(31.5480°N, 97.1670°W)
Time: 14:01:36
(UTC-05:00)

Amateur Radio Satellites - All Passes

Search period start: 23 October 2017 13:31
Search period end: 24 October 2017 13:31
Location: Waco, TX, 31.5480°N, 97.1670°W

Satellite Date Start Highest point End Downlink Frequencies (MHz)
Time Altitude Azimuth
ESTCUBE 1 23 Oct 13:31:50 13:35:56 36° 287° (WNW) 13:40:01 437.505/2401.250
DUCHIFAT 1 23 Oct 13:33:44 13:37:26 29° 262° (W) 13:41:10 145.980
Oscar 19 23 Oct 13:35:40 13:40:07 30° 70° (ENE) 13:44:33 437.125/150
LO-87 23 Oct 13:48:44 13:49:10 10° 291° (WNW) 13:49:35 145.935 - 145.965
M-CUBED/EXP-1 PRIME 23 Oct 13:58:02 14:01:11 37° 71° (ENE) 14:04:15 437.505
DX 1 23 Oct 14:02:51 14:05:06 14° 94° (E) 14:07:20 434.975-435.025
AO-7 23 Oct 14:05:20 14:06:00 10° 52° (NE) 14:06:40 .
UKube-1 23 Oct 14:19:44 14:21:43 13° 94° (E) 14:23:40 .
Gurwin Techsat 1B 23 Oct 14:34:00 14:39:18 82° 76° (ENE) 14:44:37 435.225
VELOX 1 23 Oct 14:42:23 14:46:28 37° 287° (WNW) 14:50:34 145.980
BUGSAT 1 23 Oct 15:06:00 15:06:41 10° 267° (W) 15:07:22 437.445
SPROUT 23 Oct 15:08:36 15:10:14 12° 293° (WNW) 15:11:53 437.525
50 SAT 23 Oct 15:09:50 15:13:01 47° 284° (WNW) 15:16:11 437.505
Oscar 19 23 Oct 15:15:09 15:19:20 25° 263° (W) 15:23:31 437.125/150
DX 1 23 Oct 15:37:17 15:41:21 38° 287° (WNW) 15:45:25 434.975-435.025
MOZHAYETS 4 23 Oct 15:46:18 15:49:23 18° 95° (E) 15:52:28
AO-7 23 Oct 15:49:00 15:57:08 63° 69° (ENE) 16:05:17 .
UKube-1 23 Oct 15:53:46 15:57:49 40° 287° (WNW) 16:01:51 .
ITAMSAT 1 23 Oct 15:54:44 15:59:33 40° 72° (ENE) 16:04:22 435.822/435.867
SO-50 23 Oct 16:13:24 16:18:04 86° 62° (ENE) 16:22:46 436.795
nSIGHT-1 23 Oct 16:19:39 16:22:30 29° 40° (NE) 16:25:21 .
ITUPSAT 1 23 Oct 16:48:16 16:53:04 80° 102° (ESE) 16:57:49 437.325
DOVE 4 23 Oct 16:54:39 16:56:43 13° 67° (ENE) 16:58:50 437.250
BEESAT 23 Oct 17:01:20 17:06:05 71° 285° (WNW) 17:10:49 436.000
ISS 23 Oct 17:01:27 17:04:43 79° 45° (NE) 17:07:58 437.550
PCSat 23 Oct 17:05:23 17:09:43 24° 56° (ENE) 17:14:00 145.827
MOZHAYETS 4 23 Oct 17:22:29 17:26:32 32° 288° (WNW) 17:30:33
ITAMSAT 1 23 Oct 17:35:29 17:39:04 19° 265° (W) 17:42:41 435.822/435.867
CUBESAT XI-V 23 Oct 17:42:48 17:47:25 81° 103° (ESE) 17:52:01 437.345
AO-7 23 Oct 17:44:07 17:50:14 23° 263° (W) 17:56:24 .
nSIGHT-1 23 Oct 17:56:27 17:58:35 17° 233° (SW) 18:00:42 .
KAITUO 1B 23 Oct 18:05:53 18:07:15 12° 70° (ENE) 18:08:40 145.475/437.950
XW-2F 23 Oct 18:12:35 18:15:21 20° 72° (ENE) 18:18:07 145.980 - 146.000
NUDT-PHONESAT 23 Oct 18:13:09 18:15:11 14° 70° (ENE) 18:17:12 437.300
KKS-1 23 Oct 18:22:32 18:26:57 56° 101° (E) 18:31:20 437.445
LilacSat-2 23 Oct 18:24:57 18:28:25 34° 75° (ENE) 18:31:53 437.200
XW-2D 23 Oct 18:27:13 18:30:40 35° 74° (ENE) 18:34:08 145.860 - 145.880
CUTE-I 23 Oct 18:29:48 18:34:37 36° 71° (ENE) 18:39:28 437.470
DOVE 4 23 Oct 18:30:08 18:34:00 37° 262° (W) 18:38:01 437.250
XW-2B 23 Oct 18:40:33 18:44:14 51° 75° (ENE) 18:47:55 145.730 - 145.750
STARS 23 Oct 18:44:58 18:49:04 36° 99° (E) 18:53:09 437.465
PCSat 23 Oct 18:48:11 18:53:08 37° 251° (WSW) 18:58:04 145.827
XW-2C 23 Oct 19:03:55 19:07:42 69° 259° (W) 19:11:29 145.795 - 145.815
HO-68 23 Oct 19:27:33 19:34:29 56° 71° (ENE) 19:41:28 435.675
KAITUO 1B 23 Oct 19:37:32 19:40:53 32° 262° (W) 19:44:15 145.475/437.950
CUTE 1.7 + AOD 2 23 Oct 19:40:03 19:44:10 54° 75° (ENE) 19:48:17 437.475
SEEDS 23 Oct 19:40:18 19:43:57 30° 73° (ENE) 19:47:37 437.485
CUBEBUG 2 23 Oct 19:43:10 19:47:22 34° 73° (ENE) 19:51:38 437.445
NUDT-PHONESAT 23 Oct 19:45:35 19:48:45 26° 263° (W) 19:51:54 437.300
XW-2F 23 Oct 19:46:33 19:49:19 19° 264° (W) 19:52:04 145.980 - 146.000
AAUSAT CUBESAT 2 23 Oct 19:53:42 19:56:26 18° 71° (ENE) 19:59:11 437.432
LilacSat-2 23 Oct 20:01:35 20:02:45 11° 266° (W) 20:03:56 437.200
KKS-1 23 Oct 20:01:53 20:02:57 11° 294° (WNW) 20:04:01 437.445
STRAND 1 23 Oct 20:03:37 20:07:39 23° 96° (E) 20:11:40 437.568
XW-2D 23 Oct 20:03:57 20:04:54 11° 266° (W) 20:05:51 145.860 - 145.880
O/OREOS (USA 219) 23 Oct 20:10:01 20:14:17 42° 104° (ESE) 20:18:36 437.305
CUTE-I 23 Oct 20:10:42 20:14:41 21° 264° (W) 20:18:41 437.470
UWE-3 23 Oct 20:13:08 20:17:29 41° 74° (ENE) 20:21:52 435.000/436.395/437.385
Oscar 11 23 Oct 20:15:28 20:16:56 12° 68° (ENE) 20:18:23 .
XW-2A 23 Oct 20:19:45 20:23:05 52° 76° (ENE) 20:26:24 145.665 - 145.685
STARS 23 Oct 20:22:25 20:25:03 16° 292° (WNW) 20:27:40 437.465
FO-29 23 Oct 20:51:42 20:56:15 17° 93° (E) 21:00:54 435.910
AO-73 23 Oct 20:53:40 20:58:08 55° 75° (ENE) 21:02:35 145.935
YUBILEINY 23 Oct 21:03:22 21:12:06 64° 82° (E) 21:20:49 435.215
SEEDS 23 Oct 21:17:07 21:19:38 16° 266° (W) 21:22:10 437.485
HO-68 23 Oct 21:17:09 21:22:26 22° 265° (W) 21:27:46 435.675
ZACube-1 23 Oct 21:18:01 21:22:34 66° 259° (W) 21:27:07 437.345
BEESAT 2 23 Oct 21:19:57 21:22:49 18° 54° (NE) 21:25:39 435.950
CUBEBUG 2 23 Oct 21:20:45 21:23:58 18° 266° (W) 21:27:15 437.445
BEESAT 3 23 Oct 21:26:42 21:30:38 87° 54° (NE) 21:34:29 437.485
AAUSAT CUBESAT 2 23 Oct 21:28:11 21:31:38 26° 263° (W) 21:35:07 437.432
AO-85 23 Oct 21:35:08 21:38:46 22° 55° (NE) 21:42:35 145.980
STRAND 1 23 Oct 21:42:14 21:46:47 32° 289° (WNW) 21:51:18 437.568
Oscar 11 23 Oct 21:48:25 21:52:35 47° 260° (W) 21:56:46 .
O/OREOS (USA 219) 23 Oct 21:51:21 21:53:52 15° 299° (WNW) 21:56:25 437.305
UWE-3 23 Oct 21:51:25 21:54:01 15° 267° (W) 21:56:39 435.000/436.395/437.385
EO-88 23 Oct 22:07:01 22:09:51 21° 72° (ENE) 22:12:40 145.990 - 145.960
DELFI C3 23 Oct 22:19:25 22:23:18 74° 76° (ENE) 22:27:12 145.870
Max Valier Satellite 23 Oct 22:24:51 22:28:31 58° 76° (ENE) 22:32:11 145.860
AO-73 23 Oct 22:33:47 22:34:34 10° 268° (W) 22:35:22 145.935
FO-29 23 Oct 22:34:15 22:41:32 77° 285° (WNW) 22:49:20 435.910
BEESAT 2 23 Oct 22:57:05 23:00:32 28° 248° (WSW) 23:03:55 435.950
PRISM 23 Oct 22:58:41 23:01:26 17° 96° (E) 23:04:11 437.425
YUBILEINY 23 Oct 23:01:51 23:08:04 22° 277° (W) 23:14:20 435.215
UNISAT 6 23 Oct 23:04:32 23:09:01 59° 100° (E) 23:13:22 437.425
AO-85 23 Oct 23:14:50 23:19:12 36° 247° (WSW) 23:23:50 145.980
TIGRISAT 23 Oct 23:18:10 23:22:43 79° 102° (ESE) 23:27:07 435.000
EO-88 23 Oct 23:41:02 23:43:23 16° 265° (W) 23:45:44 145.990 - 145.960
AIST 2D 23 Oct 23:42:13 23:43:04 11° 94° (E) 23:43:56 435.315
RS-15 24 Oct 00:14:20 00:26:13 62° 111° (ESE) 00:38:14 29.354- 29.394
LO-87 24 Oct 00:16:18 00:19:49 54° 260° (W) 00:23:22 145.935 - 145.965
SPROUT 24 Oct 00:19:44 00:22:39 18° 70° (ENE) 00:25:35 437.525
FO-29 24 Oct 00:23:01 00:25:34 12° 298° (WNW) 00:28:10 435.910
ESTCUBE 1 24 Oct 00:25:30 00:29:59 76° 258° (WSW) 00:34:28 437.505/2401.250
PRISM 24 Oct 00:33:08 00:36:39 28° 288° (WNW) 00:40:11 437.425
UNISAT 6 24 Oct 00:44:54 00:45:06 10° 295° (WNW) 00:45:17 437.425
EO-79 24 Oct 00:48:26 00:52:10 30° 98° (E) 00:55:52 145.935-145.965
POLYITAN 1 24 Oct 00:54:12 00:58:06 35° 98° (E) 01:01:57 437.675
AIST 2D 24 Oct 01:13:15 01:16:15 28° 286° (WNW) 01:19:15 435.315
NANOSAT C BR1 24 Oct 01:13:35 01:17:45 55° 100° (E) 01:21:51 145.865
QB50P2 24 Oct 01:14:30 01:18:46 75° 102° (ESE) 01:22:58 145.880/145.840
DUCHIFAT 1 24 Oct 01:21:59 01:26:10 61° 101° (ESE) 01:30:17 145.980
VELOX 1 24 Oct 01:33:48 01:38:10 83° 256° (WSW) 01:42:34 145.980
50 SAT 24 Oct 01:33:51 01:36:08 18° 72° (ENE) 01:38:27 437.505
NO-84 24 Oct 01:47:52 01:51:59 53° 127° (SE) 01:56:11 435.350 FM
Oscar 19 24 Oct 01:53:18 01:56:17 15° 94° (E) 01:59:15 437.125/150
SPROUT 24 Oct 01:54:34 01:58:17 29° 263° (W) 02:02:01 437.525
EO-79 24 Oct 02:24:53 02:27:38 17° 291° (WNW) 02:30:23 145.935-145.965
DX 1 24 Oct 02:27:04 02:31:22 89° 247° (WSW) 02:35:43 434.975-435.025
RS-15 24 Oct 02:28:10 02:39:14 38° 311° (NW) 02:50:22 29.354- 29.394
POLYITAN 1 24 Oct 02:31:10 02:33:30 15° 292° (WNW) 02:35:50 437.675
UKube-1 24 Oct 02:42:27 02:46:44 85° 77° (ENE) 02:51:03 .
MOZHAYETS 4 24 Oct 02:46:02 02:46:22 10° 66° (ENE) 02:46:43
BUGSAT 1 24 Oct 02:48:56 02:52:59 48° 286° (WNW) 02:56:57 437.445
Gurwin Techsat 1B 24 Oct 02:55:30 03:00:40 49° 100° (E) 03:05:46 435.225
50 SAT 24 Oct 03:06:27 03:08:19 14° 264° (W) 03:10:10 437.505
M-CUBED/EXP-1 PRIME 24 Oct 03:13:40 03:17:27 75° 107° (ESE) 03:21:32 437.505
NO-84 24 Oct 03:26:38 03:29:39 18° 322° (NW) 03:32:40 435.350 FM
Oscar 19 24 Oct 03:30:53 03:35:45 46° 287° (WNW) 03:40:37 437.125/150
ITUPSAT 1 24 Oct 03:49:42 03:54:21 51° 74° (ENE) 03:59:01 437.325
AO-7 24 Oct 03:57:11 04:04:02 28° 98° (E) 04:10:50 .
BEESAT 24 Oct 04:02:14 04:07:00 74° 76° (ENE) 04:11:47 436.000
ITAMSAT 1 24 Oct 04:13:19 04:17:16 21° 96° (E) 04:21:11 435.822/435.867
MOZHAYETS 4 24 Oct 04:18:21 04:22:55 63° 259° (WSW) 04:27:31
Gurwin Techsat 1B 24 Oct 04:36:52 04:40:08 17° 294° (WNW) 04:43:24 435.225
CUBESAT XI-V 24 Oct 04:40:53 04:45:13 42° 74° (ENE) 04:49:34 437.345
JUGNU 24 Oct 04:50:29 04:54:39 20° 169° (SSE) 04:58:50 437.505
RS-15 24 Oct 04:53:36 04:56:57 11° 342° (NNW) 05:00:18 29.354- 29.394
KKS-1 24 Oct 05:15:50 05:19:34 27° 71° (ENE) 05:23:17 437.445
ITUPSAT 1 24 Oct 05:30:26 05:32:23 12° 267° (W) 05:34:20 437.325
STARS 24 Oct 05:37:24 05:40:20 18° 69° (ENE) 05:43:17 437.465
AO-7 24 Oct 05:48:58 05:56:57 53° 292° (WNW) 06:04:56 .
ITAMSAT 1 24 Oct 05:51:59 05:56:43 36° 289° (WNW) 06:01:26 435.822/435.867
CUBESAT XI-V 24 Oct 06:20:21 06:22:42 14° 266° (W) 06:25:03 437.345
SO-50 24 Oct 06:22:36 06:27:04 87° 288° (WNW) 06:31:34 436.795
O/OREOS (USA 219) 24 Oct 06:25:07 06:29:20 35° 67° (ENE) 06:33:30 437.305
DOVE 4 24 Oct 06:32:28 06:37:38 81° 102° (ESE) 06:42:56 437.250
JUGNU 24 Oct 06:38:18 06:43:07 26° 178° (S) 06:47:55 437.505
XW-2C 24 Oct 06:42:20 06:44:46 17° 95° (E) 06:47:12 145.795 - 145.815
CUTE-I 24 Oct 06:52:23 06:56:31 22° 96° (E) 07:00:39 437.470
KKS-1 24 Oct 06:52:44 06:56:01 20° 264° (W) 06:59:20 437.445
HO-68 24 Oct 07:04:20 07:06:56 12° 92° (E) 07:09:33 435.675
STARS 24 Oct 07:12:30 07:16:22 31° 262° (W) 07:20:18 437.465
KAITUO 1B 24 Oct 07:13:14 07:16:31 30° 98° (E) 07:19:48 145.475/437.950
RS-15 24 Oct 07:13:24 07:17:59 13° 22° (NNE) 07:22:30 29.354- 29.394
STRAND 1 24 Oct 07:14:57 07:18:37 20° 68° (ENE) 07:22:19 437.568
NUDT-PHONESAT 24 Oct 07:20:03 07:23:27 36° 99° (E) 07:26:49 437.300
SRMSAT 24 Oct 07:22:05 07:25:52 18° 167° (SSE) 07:29:40 437.500
XW-2F 24 Oct 07:22:14 07:25:53 57° 100° (E) 07:29:32 145.980 - 146.000
CUTE 1.7 + AOD 2 24 Oct 07:31:24 07:33:33 14° 94° (E) 07:35:40 437.475
LilacSat-2 24 Oct 07:36:40 07:40:25 72° 281° (WNW) 07:44:10 437.200
XW-2D 24 Oct 07:38:06 07:41:50 72° 283° (WNW) 07:45:33 145.860 - 145.880
PCSat 24 Oct 07:40:57 07:46:14 59° 111° (ESE) 07:51:33 145.827
XW-2B 24 Oct 07:51:49 07:55:26 47° 284° (WNW) 07:59:01 145.730 - 145.750
ISS 24 Oct 08:01:41 08:04:26 26° 129° (SE) 08:07:12 437.550
O/OREOS (USA 219) 24 Oct 08:05:36 08:08:23 16° 260° (W) 08:11:08 437.305
YUBILEINY 24 Oct 08:08:04 08:10:44 12° 78° (ENE) 08:13:24 435.215
UWE-3 24 Oct 08:10:13 08:11:43 12° 92° (E) 08:13:11 435.000/436.395/437.385
XW-2C 24 Oct 08:15:55 08:18:51 22° 288° (WNW) 08:21:47 145.795 - 145.815
JUGNU 24 Oct 08:27:05 08:31:35 22° 188° (S) 08:36:02 437.505
CUTE-I 24 Oct 08:31:42 08:36:33 36° 289° (WNW) 08:41:24 437.470
FO-29 24 Oct 08:43:29 08:47:32 23° 67° (ENE) 08:51:47 435.910
HO-68 24 Oct 08:48:03 08:55:18 88° 284° (WNW) 09:02:30 435.675
AO-73 24 Oct 08:48:22 08:50:43 14° 94° (E) 08:53:01 145.935
KAITUO 1B 24 Oct 08:48:40 08:50:09 12° 290° (WNW) 08:51:39 145.475/437.950
STRAND 1 24 Oct 08:52:45 08:57:28 37° 261° (W) 09:02:15 437.568
nSIGHT-1 24 Oct 08:53:27 08:56:34 50° 317° (NW) 08:59:41 .
NUDT-PHONESAT 24 Oct 08:56:46 08:56:53 10° 291° (WNW) 08:57:00 437.300
SEEDS 24 Oct 09:03:48 09:07:57 65° 283° (WNW) 09:12:05 437.485
CUTE 1.7 + AOD 2 24 Oct 09:05:36 09:09:25 35° 286° (WNW) 09:13:15 437.475
SRMSAT 24 Oct 09:09:41 09:14:27 25° 176° (S) 09:19:14 437.500
ZACube-1 24 Oct 09:11:51 09:15:45 33° 98° (E) 09:19:32 437.345
AAUSAT CUBESAT 2 24 Oct 09:14:14 09:18:21 65° 101° (E) 09:22:27 437.432
CUBEBUG 2 24 Oct 09:15:17 09:19:42 53° 285° (WNW) 09:23:57 437.445
XW-2A 24 Oct 09:18:33 09:21:51 65° 283° (WNW) 09:25:08 145.665 - 145.685
RS-15 24 Oct 09:23:45 09:34:55 44° 52° (NE) 09:45:26 29.354- 29.394
PCSat 24 Oct 09:26:39 09:29:59 16° 307° (NW) 09:33:19 145.827
ISS 24 Oct 09:38:20 09:40:53 21° 323° (NW) 09:43:25 437.550
Oscar 11 24 Oct 09:40:29 09:44:36 44° 99° (E) 09:48:40 .
UWE-3 24 Oct 09:44:11 09:48:22 43° 286° (WNW) 09:52:25 435.000/436.395/437.385
YUBILEINY 24 Oct 09:57:26 10:06:06 85° 94° (E) 10:14:51 435.215
UNISAT 6 24 Oct 09:58:07 10:02:05 29° 72° (ENE) 10:06:06 437.425
DELFI C3 24 Oct 10:02:40 10:04:40 13° 94° (E) 10:06:39 145.870
NO-84 24 Oct 10:03:10 10:06:40 34° 44° (NE) 10:09:53 435.350 FM
TIGRISAT 24 Oct 10:11:18 10:15:33 37° 73° (ENE) 10:19:52 435.000
JUGNU 24 Oct 10:17:30 10:19:57 13° 197° (SSW) 10:22:24 437.505
AO-73 24 Oct 10:23:10 10:27:00 33° 287° (WNW) 10:30:45 145.935
FO-29 24 Oct 10:27:44 10:32:23 33° 263° (W) 10:37:19 435.910
HO-68 24 Oct 10:38:51 10:41:58 13° 301° (WNW) 10:45:05 435.675
ZACube-1 24 Oct 10:49:12 10:51:40 15° 291° (WNW) 10:54:06 437.345
SRMSAT 24 Oct 10:58:25 11:03:05 24° 186° (S) 11:07:45 437.500
BEESAT 3 24 Oct 11:10:57 11:14:46 48° 114° (ESE) 11:18:39 437.485
EO-88 24 Oct 11:12:57 11:16:31 56° 101° (E) 11:20:04 145.990 - 145.960
PRISM 24 Oct 11:16:21 11:20:23 82° 258° (WSW) 11:24:27 437.425
Oscar 11 24 Oct 11:18:36 11:20:16 12° 292° (WNW) 11:21:58 .
Max Valier Satellite 24 Oct 11:33:16 11:36:46 45° 284° (WNW) 11:40:15 145.860
UNISAT 6 24 Oct 11:35:09 11:38:42 22° 265° (W) 11:42:18 437.425
DELFI C3 24 Oct 11:35:53 11:39:25 32° 287° (WNW) 11:42:58 145.870
RS-15 24 Oct 11:36:24 11:47:16 48° 252° (WSW) 11:57:38 29.354- 29.394
EO-79 24 Oct 11:37:32 11:39:17 12° 68° (ENE) 11:41:02 145.935-145.965
NO-84 24 Oct 11:41:32 11:43:40 15° 240° (WSW) 11:45:43 435.350 FM
AIST 2D 24 Oct 11:41:49 11:45:04 37° 75° (ENE) 11:48:19 435.315
POLYITAN 1 24 Oct 11:42:56 11:45:17 15° 68° (ENE) 11:47:38 437.675
AO-85 24 Oct 11:46:02 11:48:31 16° 110° (ESE) 11:51:01 145.980
LO-87 24 Oct 11:48:59 11:51:15 16° 95° (E) 11:53:29 145.935 - 145.965
TIGRISAT 24 Oct 11:49:20 11:52:17 17° 266° (W) 11:55:17 435.000
YUBILEINY 24 Oct 11:59:08 12:03:50 15° 291° (WNW) 12:08:36 435.215
NANOSAT C BR1 24 Oct 12:01:04 12:04:16 21° 71° (ENE) 12:07:29 145.865
QB50P2 24 Oct 12:02:08 12:05:46 28° 72° (ENE) 12:09:24 145.880/145.840
DUCHIFAT 1 24 Oct 12:09:02 12:12:21 23° 71° (ENE) 12:15:41 145.980
ESTCUBE 1 24 Oct 12:23:11 12:27:13 32° 98° (E) 12:31:14 437.505/2401.250
BEESAT 2 24 Oct 12:42:29 12:46:20 48° 300° (WNW) 12:50:15 435.950
SRMSAT 24 Oct 12:48:22 12:51:39 15° 195° (SSW) 12:54:57 437.500
BEESAT 3 24 Oct 12:50:57 12:52:33 12° 309° (NW) 12:54:10 437.485
Oscar 19 24 Oct 13:05:52 13:08:35 15° 66° (ENE) 13:11:19 437.125/150
EO-79 24 Oct 13:10:33 13:14:35 43° 261° (W) 13:18:40 145.935-145.965
POLYITAN 1 24 Oct 13:16:44 13:20:41 36° 261° (W) 13:24:40 437.675
LO-87 24 Oct 13:21:44 13:24:33 21° 288° (WNW) 13:27:20 145.935 - 145.965
